Retour au catalogue

FENGYUN 1C DEB

ActifPO
NORAD 31613·DEBRIS·🇨🇳 China

Lancé May 10, 1999 depuis Taiyuan Satellite Launch Center

Loading…

Prochains Passages (prochaines 24 heures)

TLE

FraisSource: Space-Track

Époque: Sep 13, 2026, 21:02 UTC

1 31613U 99025BZT 26256.87689682  .00000958  00000-0  83037-3 0  9990
2 31613  98.4491  53.1129 0343247  97.3029 266.7259 13.64263192955121

Suivez FENGYUN 1C DEB en temps réel avec AllMySat

Download on the App Store